UAL154 PTPN-PTKK

Flight info

Callsign UAL154
Flight time 1h 11m
Altitude 34000
Route BIRUQ R584 MICNO
Aircraft B738/M-SDE2E3FGHIRWXY/LB1

Departure

Time 2026-05-06 07:53
Airport Pohnpei International Airport (PTPN)

Arrival

Time 2026-05-06 09:04
Airport Chuuk International Airport (PTKK)
Time Latitude Longitude Altitude Speed Heading
2026-05-06 07:29 6.98196 158.20331 16 ft 0 kts 178°
2026-05-06 07:46 6.98198 158.20331 17 ft 2 kts 178°
2026-05-06 07:46 6.98218 158.20331 20 ft 3 kts 179°
2026-05-06 07:46 6.98236 158.20330 17 ft 3 kts 181°
2026-05-06 07:46 6.98255 158.20333 20 ft 3 kts 205°
2026-05-06 07:47 6.98272 158.20344 18 ft 3 kts 221°
2026-05-06 07:47 6.98287 158.20356 20 ft 3 kts 198°
2026-05-06 07:47 6.98294 158.20358 20 ft 1 kts 179°
2026-05-06 07:49 6.98293 158.20358 20 ft 1 kts 175°
2026-05-06 07:50 6.98265 158.20365 19 ft 5 kts 182°
2026-05-06 07:50 6.98260 158.20353 20 ft 2 kts 276°
2026-05-06 07:50 6.98268 158.20348 19 ft 1 kts
2026-05-06 07:50 6.98303 158.20356 17 ft 11 kts
2026-05-06 07:51 6.98426 158.20359 18 ft 21 kts
2026-05-06 07:51 6.98513 158.20290 15 ft 16 kts 276°
2026-05-06 07:51 6.98485 158.20144 17 ft 27 kts 240°
2026-05-06 07:51 6.98493 158.20085 18 ft 3 kts 330°
2026-05-06 07:52 6.98511 158.20086 17 ft 1 kts 41°
2026-05-06 07:52 6.98512 158.20104 17 ft 4 kts 94°
2026-05-06 07:52 6.98513 158.20396 16 ft 83 kts 90°
2026-05-06 07:52 6.98509 158.21225 24 ft 151 kts 88°
2026-05-06 07:53 6.98490 158.22318 765 ft 154 kts 88°
2026-05-06 07:53 6.98686 158.23377 1528 ft 162 kts 63°
2026-05-06 07:53 6.99481 158.24255 2036 ft 180 kts 35°
2026-05-06 07:53 7.00763 158.24635 2260 ft 213 kts
2026-05-06 07:54 7.02257 158.24156 2485 ft 241 kts 329°
2026-05-06 07:54 7.03383 158.22848 2932 ft 256 kts 298°
2026-05-06 07:54 7.04117 158.21185 3438 ft 262 kts 296°
2026-05-06 07:54 7.04724 158.19399 3770 ft 281 kts 281°
2026-05-06 07:55 7.04943 158.17414 4383 ft 288 kts 276°
2026-05-06 07:55 7.05093 158.15392 5178 ft 293 kts 275°
2026-05-06 07:55 7.05241 158.13345 6125 ft 292 kts 276°
2026-05-06 07:55 7.05395 158.11289 6950 ft 299 kts 276°
2026-05-06 07:56 7.05551 158.09187 7826 ft 303 kts 276°
2026-05-06 07:56 7.05703 158.07075 8778 ft 303 kts 275°
2026-05-06 07:56 7.05855 158.04933 9581 ft 309 kts 276°
2026-05-06 07:56 7.06009 158.02752 10285 ft 317 kts 276°
2026-05-06 07:57 7.06172 158.00463 10519 ft 341 kts 275°
2026-05-06 07:57 7.06348 157.97997 10772 ft 363 kts 275°
2026-05-06 07:57 7.06529 157.95423 11249 ft 373 kts 275°
2026-05-06 07:57 7.06713 157.92799 11759 ft 378 kts 275°
2026-05-06 07:58 7.06897 157.90156 12410 ft 380 kts 275°
2026-05-06 07:58 7.07083 157.87500 13033 ft 382 kts 275°
2026-05-06 07:58 7.07269 157.84827 13661 ft 385 kts 275°
2026-05-06 07:58 7.07457 157.82131 14217 ft 387 kts 275°
2026-05-06 07:59 7.07644 157.79454 14701 ft 390 kts 275°
2026-05-06 07:59 7.07837 157.76688 15221 ft 393 kts 274°
2026-05-06 07:59 7.08028 157.73966 15699 ft 396 kts 274°
2026-05-06 07:59 7.08221 157.71186 16205 ft 399 kts 274°
2026-05-06 08:00 7.08416 157.68391 16685 ft 402 kts 274°
2026-05-06 08:00 7.08612 157.65570 17144 ft 406 kts 274°
2026-05-06 08:00 7.08810 157.62721 17639 ft 408 kts 274°
2026-05-06 08:00 7.09009 157.59860 18059 ft 412 kts 274°
2026-05-06 08:01 7.09210 157.56971 18483 ft 414 kts 274°
2026-05-06 08:01 7.09410 157.54075 18908 ft 415 kts 274°
2026-05-06 08:01 7.09612 157.51168 19289 ft 418 kts 274°
2026-05-06 08:01 7.09812 157.48274 19686 ft 420 kts 274°
2026-05-06 08:02 7.10015 157.45335 20077 ft 422 kts 274°
2026-05-06 08:02 7.10220 157.42379 20488 ft 424 kts 274°
2026-05-06 08:02 7.10426 157.39402 20805 ft 428 kts 274°
2026-05-06 08:02 7.10633 157.36407 21165 ft 430 kts 275°
2026-05-06 08:03 7.10842 157.33391 21510 ft 432 kts 275°
2026-05-06 08:03 7.11050 157.30365 21897 ft 433 kts 275°
2026-05-06 08:03 7.11259 157.27332 22257 ft 435 kts 274°
2026-05-06 08:03 7.11465 157.24326 22574 ft 438 kts 275°
2026-05-06 08:04 7.11676 157.21250 22866 ft 441 kts 275°
2026-05-06 08:04 7.11889 157.18163 23203 ft 442 kts 275°
2026-05-06 08:04 7.12101 157.15067 23511 ft 444 kts 275°
2026-05-06 08:04 7.12314 157.11959 23750 ft 446 kts 275°
2026-05-06 08:05 7.12527 157.08836 24022 ft 447 kts 275°
2026-05-06 08:05 7.12741 157.05702 24308 ft 448 kts 274°
2026-05-06 08:05 7.12955 157.02559 24498 ft 452 kts 274°
2026-05-06 08:05 7.13170 156.99399 24746 ft 453 kts 274°
2026-05-06 08:06 7.13386 156.96235 25073 ft 453 kts 274°
2026-05-06 08:06 7.13602 156.93065 25295 ft 455 kts 274°
2026-05-06 08:06 7.13819 156.89870 25475 ft 458 kts 274°
2026-05-06 08:06 7.14034 156.86705 25735 ft 459 kts 274°
2026-05-06 08:07 7.14252 156.83500 26023 ft 459 kts 274°
2026-05-06 08:07 7.14470 156.80286 26214 ft 462 kts 274°
2026-05-06 08:07 7.14689 156.77046 26412 ft 464 kts 274°
2026-05-06 08:07 7.14909 156.73795 26641 ft 466 kts 274°
2026-05-06 08:08 7.15129 156.70545 26896 ft 466 kts 274°
2026-05-06 08:08 7.15350 156.67276 27099 ft 468 kts 274°
2026-05-06 08:08 7.15570 156.64003 27314 ft 469 kts 274°
2026-05-06 08:08 7.15792 156.60714 27513 ft 471 kts 274°
2026-05-06 08:09 7.16014 156.57420 27714 ft 473 kts 273°
2026-05-06 08:09 7.16236 156.54110 27912 ft 474 kts 273°
2026-05-06 08:09 7.16459 156.50791 28101 ft 476 kts 273°
2026-05-06 08:09 7.16682 156.47461 28292 ft 477 kts 273°
2026-05-06 08:10 7.16906 156.44126 28462 ft 479 kts 273°
2026-05-06 08:10 7.17131 156.40767 28596 ft 481 kts 273°
2026-05-06 08:10 7.17356 156.37403 28796 ft 482 kts 273°
2026-05-06 08:10 7.17581 156.34028 28969 ft 484 kts 273°
2026-05-06 08:11 7.17807 156.30644 29138 ft 485 kts 273°
2026-05-06 08:11 7.18033 156.27249 29267 ft 487 kts 273°
2026-05-06 08:11 7.18257 156.23882 29416 ft 488 kts 273°
2026-05-06 08:11 7.18485 156.20463 29550 ft 490 kts 273°
2026-05-06 08:12 7.18713 156.17034 29779 ft 490 kts 273°
2026-05-06 08:12 7.18952 156.13613 30026 ft 489 kts 274°
2026-05-06 08:13 7.19642 156.03757 30635 ft 487 kts 274°
2026-05-06 08:13 7.19866 156.00360 30837 ft 486 kts 274°
2026-05-06 08:13 7.20088 155.96962 31076 ft 485 kts 274°
2026-05-06 08:13 7.20160 155.95861 31160 ft 485 kts 274°
2026-05-06 08:14 7.20750 155.86854 31762 ft 483 kts 274°
2026-05-06 08:14 7.20971 155.83488 32009 ft 482 kts 274°
2026-05-06 08:14 7.21193 155.80108 32209 ft 482 kts 274°
2026-05-06 08:15 7.21414 155.76739 32456 ft 481 kts 274°
2026-05-06 08:15 7.21635 155.73382 32693 ft 481 kts 274°
2026-05-06 08:15 7.21855 155.70024 32925 ft 480 kts 274°
2026-05-06 08:15 7.22074 155.66673 33193 ft 478 kts 274°
2026-05-06 08:16 7.22293 155.63334 33458 ft 477 kts 274°
2026-05-06 08:16 7.22510 155.60005 33704 ft 476 kts 274°
2026-05-06 08:16 7.22727 155.56685 33865 ft 474 kts 274°
2026-05-06 08:16 7.22944 155.53364 33849 ft 476 kts 274°
2026-05-06 08:17 7.23378 155.46678 33871 ft 480 kts 274°
2026-05-06 08:17 7.23810 155.39977 33867 ft 484 kts 275°
2026-05-06 08:18 7.24248 155.33189 33870 ft 487 kts 274°
2026-05-06 08:18 7.24687 155.26381 33864 ft 486 kts 274°
2026-05-06 08:19 7.25123 155.19597 33859 ft 485 kts 275°
2026-05-06 08:19 7.25558 155.12813 33861 ft 485 kts 274°
2026-05-06 08:20 7.25993 155.06020 33867 ft 486 kts 274°
2026-05-06 08:20 7.26427 154.99231 33858 ft 486 kts 274°
2026-05-06 08:21 7.26860 154.92433 33863 ft 486 kts 274°
2026-05-06 08:21 7.27289 154.85695 33862 ft 485 kts 274°
2026-05-06 08:22 7.27719 154.78908 33865 ft 486 kts 274°
2026-05-06 08:22 7.28150 154.72113 33862 ft 486 kts 274°
2026-05-06 08:23 7.28579 154.65311 33865 ft 486 kts 274°
2026-05-06 08:23 7.29006 154.58520 33865 ft 486 kts 274°
2026-05-06 08:24 7.29432 154.51733 33859 ft 486 kts 274°
2026-05-06 08:24 7.29858 154.44937 33876 ft 486 kts 274°
2026-05-06 08:25 7.30283 154.38141 33868 ft 486 kts 274°
2026-05-06 08:25 7.30706 154.31352 33877 ft 486 kts 274°
2026-05-06 08:26 7.31126 154.24603 33873 ft 485 kts 274°
2026-05-06 08:26 7.31548 154.17808 33863 ft 485 kts 274°
2026-05-06 08:27 7.31968 154.11015 33872 ft 487 kts 274°
2026-05-06 08:27 7.32388 154.04222 33851 ft 484 kts 274°
2026-05-06 08:28 7.32806 153.97442 33872 ft 486 kts 274°
2026-05-06 08:28 7.33224 153.90645 33861 ft 485 kts 274°
2026-05-06 08:29 7.33637 153.83917 33873 ft 485 kts 274°
2026-05-06 08:29 7.34053 153.77102 33877 ft 489 kts 274°
2026-05-06 08:30 7.34472 153.70215 33339 ft 494 kts 274°
2026-05-06 08:30 7.34679 153.66796 32766 ft 489 kts 274°
2026-05-06 08:30 7.34885 153.63396 32290 ft 483 kts 273°
2026-05-06 08:31 7.35089 153.60033 31778 ft 479 kts 273°
2026-05-06 08:31 7.35292 153.56695 31294 ft 475 kts 274°
2026-05-06 08:31 7.35493 153.53382 30790 ft 472 kts 274°
2026-05-06 08:31 7.35692 153.50091 30299 ft 468 kts 273°
2026-05-06 08:32 7.35890 153.46819 29788 ft 465 kts 273°
2026-05-06 08:32 7.36083 153.43615 29255 ft 461 kts 273°
2026-05-06 08:32 7.36277 153.40401 28741 ft 457 kts 273°
2026-05-06 08:32 7.36468 153.37218 28243 ft 453 kts 273°
2026-05-06 08:33 7.36658 153.34065 27755 ft 448 kts 274°
2026-05-06 08:33 7.36845 153.30939 27283 ft 444 kts 273°
2026-05-06 08:33 7.37031 153.27848 26803 ft 441 kts 274°
2026-05-06 08:33 7.37215 153.24774 26331 ft 437 kts 274°
2026-05-06 08:34 7.37397 153.21729 25862 ft 434 kts 274°
2026-05-06 08:34 7.37757 153.15692 24904 ft 429 kts 274°
2026-05-06 08:34 7.37936 153.12696 24426 ft 427 kts 274°
2026-05-06 08:35 7.38111 153.09753 23967 ft 425 kts 274°
2026-05-06 08:35 7.38287 153.06785 23500 ft 423 kts 274°
2026-05-06 08:35 7.38462 153.03836 22962 ft 421 kts 274°
2026-05-06 08:35 7.38636 153.00902 22478 ft 417 kts 274°
2026-05-06 08:36 7.38808 152.97988 22009 ft 414 kts 274°
2026-05-06 08:36 7.38979 152.95108 21551 ft 410 kts 274°
2026-05-06 08:36 7.39147 152.92252 21093 ft 407 kts 274°
2026-05-06 08:36 7.39315 152.89423 20656 ft 403 kts 274°
2026-05-06 08:37 7.39481 152.86606 20213 ft 400 kts 274°
2026-05-06 08:37 7.39645 152.83812 19758 ft 398 kts 274°
2026-05-06 08:37 7.39809 152.81036 19313 ft 396 kts 274°
2026-05-06 08:37 7.39971 152.78277 18871 ft 394 kts 274°
2026-05-06 08:38 7.40132 152.75529 18428 ft 392 kts 274°
2026-05-06 08:38 7.40291 152.72805 17954 ft 390 kts 274°
2026-05-06 08:38 7.40450 152.70077 17485 ft 387 kts 274°
2026-05-06 08:38 7.40555 152.68285 17192 ft 385 kts 274°
2026-05-06 08:39 7.40711 152.65608 16752 ft 382 kts 274°
2026-05-06 08:39 7.40867 152.62941 16321 ft 379 kts 274°
2026-05-06 08:39 7.41020 152.60308 15902 ft 376 kts 274°
2026-05-06 08:39 7.41172 152.57688 15482 ft 373 kts 274°
2026-05-06 08:40 7.41323 152.55091 15068 ft 370 kts 274°
2026-05-06 08:40 7.41520 152.51680 14506 ft 367 kts 273°
2026-05-06 08:40 7.41620 152.49948 14227 ft 366 kts 273°
2026-05-06 08:40 7.41766 152.47403 13796 ft 364 kts 273°
2026-05-06 08:41 7.41911 152.44852 13353 ft 362 kts 273°
2026-05-06 08:41 7.42052 152.42367 12928 ft 359 kts 273°
2026-05-06 08:41 7.42197 152.39853 12504 ft 356 kts 274°
2026-05-06 08:41 7.42343 152.37339 12092 ft 353 kts 274°
2026-05-06 08:42 7.42454 152.34906 11684 ft 351 kts 267°
2026-05-06 08:42 7.41957 152.32518 11301 ft 346 kts 251°
2026-05-06 08:42 7.41184 152.30237 10918 ft 343 kts 250°
2026-05-06 08:42 7.40394 152.27974 10551 ft 341 kts 250°
2026-05-06 08:43 7.39618 152.25758 10401 ft 331 kts 250°
2026-05-06 08:43 7.38866 152.23598 10245 ft 321 kts 250°
2026-05-06 08:43 7.38143 152.21503 10105 ft 312 kts 250°
2026-05-06 08:43 7.37441 152.19461 9972 ft 304 kts 251°
2026-05-06 08:44 7.36759 152.17472 9788 ft 298 kts 250°
2026-05-06 08:44 7.36084 152.15500 9480 ft 296 kts 251°
2026-05-06 08:44 7.35424 152.13573 9184 ft 294 kts 251°
2026-05-06 08:44 7.34749 152.11605 8874 ft 292 kts 251°
2026-05-06 08:45 7.34094 152.09693 8586 ft 290 kts 251°
2026-05-06 08:45 7.33438 152.07777 8292 ft 289 kts 251°
2026-05-06 08:45 7.32784 152.05868 7997 ft 287 kts 251°
2026-05-06 08:45 7.32134 152.03971 7701 ft 286 kts 251°
2026-05-06 08:46 7.31487 152.02083 7415 ft 285 kts 251°
2026-05-06 08:46 7.30842 152.00202 7119 ft 284 kts 251°
2026-05-06 08:46 7.30199 151.98326 6825 ft 283 kts 251°
2026-05-06 08:46 7.29557 151.96457 6514 ft 283 kts 251°
2026-05-06 08:47 7.28914 151.94585 6230 ft 282 kts 251°
2026-05-06 08:47 7.28272 151.92719 5918 ft 281 kts 250°
2026-05-06 08:47 7.27632 151.90860 5633 ft 280 kts 251°
2026-05-06 08:47 7.26996 151.89010 5333 ft 280 kts 251°
2026-05-06 08:48 7.26368 151.87179 5055 ft 278 kts 251°
2026-05-06 08:48 7.25731 151.85314 4774 ft 277 kts 251°
2026-05-06 08:48 7.25125 151.83539 4675 ft 269 kts 251°
2026-05-06 08:48 7.24751 151.81700 4364 ft 269 kts 274°
2026-05-06 08:49 7.25248 151.79913 4066 ft 266 kts 302°
2026-05-06 08:49 7.26417 151.78502 3891 ft 258 kts 319°
2026-05-06 08:49 7.27705 151.77280 3750 ft 251 kts 320°
2026-05-06 08:49 7.28958 151.76097 3632 ft 243 kts 319°
2026-05-06 08:50 7.30161 151.74950 3527 ft 234 kts 320°
2026-05-06 08:50 7.31337 151.73825 3438 ft 234 kts 320°
2026-05-06 08:50 7.32630 151.72821 3214 ft 236 kts 342°
2026-05-06 08:50 7.34204 151.72643 2987 ft 226 kts 17°
2026-05-06 08:51 7.35525 151.73364 2764 ft 212 kts 44°
2026-05-06 08:51 7.36576 151.74337 2573 ft 200 kts 48°
2026-05-06 08:51 7.37520 151.75309 2320 ft 187 kts 50°
2026-05-06 08:51 7.38396 151.76222 2078 ft 174 kts 50°
2026-05-06 08:52 7.39213 151.77071 1832 ft 165 kts 50°
2026-05-06 08:52 7.40000 151.77886 1657 ft 156 kts 51°
2026-05-06 08:52 7.40738 151.78652 1426 ft 154 kts 50°
2026-05-06 08:52 7.41468 151.79408 1256 ft 148 kts 51°
2026-05-06 08:53 7.42179 151.80146 1049 ft 146 kts 51°
2026-05-06 08:53 7.42892 151.80885 846 ft 148 kts 50°
2026-05-06 08:53 7.43604 151.81625 667 ft 146 kts 51°
2026-05-06 08:53 7.44307 151.82357 457 ft 145 kts 49°
2026-05-06 08:54 7.45028 151.83095 243 ft 150 kts 51°
2026-05-06 08:54 7.45753 151.83847 46 ft 150 kts 49°
2026-05-06 08:54 7.46432 151.84515 24 ft 123 kts 47°
2026-05-06 08:54 7.47072 151.85216 473 ft 140 kts 43°
2026-05-06 08:55 7.47953 151.85761 1121 ft 166 kts 25°
2026-05-06 08:55 7.49219 151.86081 1380 ft 208 kts
2026-05-06 08:55 7.50638 151.85800 1800 ft 217 kts 334°
2026-05-06 08:55 7.51824 151.84761 1910 ft 236 kts 308°
2026-05-06 08:56 7.52459 151.83244 2420 ft 234 kts 278°
2026-05-06 08:56 7.52287 151.81635 2469 ft 232 kts 245°
2026-05-06 08:56 7.51429 151.80327 2513 ft 226 kts 229°
2026-05-06 08:56 7.50430 151.79121 2491 ft 222 kts 227°
2026-05-06 08:57 7.49434 151.77930 2495 ft 223 kts 227°
2026-05-06 08:57 7.48439 151.76737 2500 ft 223 kts 228°
2026-05-06 08:57 7.47443 151.75546 2490 ft 222 kts 227°
2026-05-06 08:57 7.46447 151.74356 2491 ft 221 kts 228°
2026-05-06 08:58 7.45434 151.73203 2492 ft 219 kts 224°
2026-05-06 08:58 7.44383 151.72092 2503 ft 218 kts 224°
2026-05-06 08:58 7.43329 151.70988 2514 ft 218 kts 224°
2026-05-06 08:58 7.42156 151.70082 2482 ft 208 kts 193°
2026-05-06 08:59 7.40774 151.70120 2524 ft 200 kts 162°
2026-05-06 08:59 7.39408 151.70419 2522 ft 199 kts 166°
2026-05-06 08:59 7.38045 151.70671 2506 ft 199 kts 167°
2026-05-06 08:59 7.36827 151.71223 2531 ft 191 kts 135°
2026-05-06 09:00 7.36141 151.72328 2535 ft 187 kts 102°
2026-05-06 09:00 7.36201 151.73625 2509 ft 189 kts 70°
2026-05-06 09:00 7.36967 151.74666 2409 ft 180 kts 47°
2026-05-06 09:00 7.37787 151.75564 2258 ft 170 kts 49°
2026-05-06 09:01 7.38588 151.76415 2039 ft 166 kts 49°
2026-05-06 09:01 7.39374 151.77231 1828 ft 161 kts 48°
2026-05-06 09:01 7.40148 151.78033 1645 ft 159 kts 49°
2026-05-06 09:01 7.40894 151.78806 1413 ft 148 kts 48°
2026-05-06 09:02 7.41597 151.79535 1206 ft 142 kts 50°
2026-05-06 09:02 7.42291 151.80256 1029 ft 146 kts 48°
2026-05-06 09:02 7.43004 151.80996 820 ft 148 kts 47°
2026-05-06 09:02 7.43718 151.81720 659 ft 145 kts 45°
2026-05-06 09:03 7.44429 151.82440 462 ft 144 kts 46°
2026-05-06 09:03 7.45132 151.83162 246 ft 143 kts 49°
2026-05-06 09:03 7.45807 151.83883 29 ft 139 kts 47°
2026-05-06 09:03 7.46384 151.84496 17 ft 93 kts 46°
2026-05-06 09:04 7.46676 151.84799 19 ft 31 kts 46°
2026-05-06 09:04 7.46745 151.84893 19 ft 8 kts 348°
2026-05-06 09:04 7.46750 151.84879 19 ft 2 kts 249°
2026-05-06 09:04 7.46726 151.84851 19 ft 10 kts 227°
2026-05-06 09:05 7.46655 151.84775 19 ft 19 kts 226°
2026-05-06 09:05 7.46541 151.84656 17 ft 27 kts 225°
2026-05-06 09:05 7.46397 151.84507 18 ft 31 kts 226°
2026-05-06 09:05 7.46248 151.84353 17 ft 30 kts 225°
2026-05-06 09:06 7.46106 151.84206 17 ft 28 kts 226°
2026-05-06 09:06 7.45972 151.84067 19 ft 27 kts 226°
2026-05-06 09:06 7.45864 151.84065 19 ft 10 kts 139°
2026-05-06 09:06 7.45809 151.84101 18 ft 7 kts 152°
2026-05-06 09:07 7.45795 151.84101 18 ft 2 kts 201°
2026-05-06 09:07 7.45787 151.84094 18 ft 0 kts 223°